| time (UTC) | temp F | wind direction | speed MPH | gust MPH | rain 1hr in | rain 24hr in | rain mn in | humidity % | barometer mb |
| 20260510071340 | 61 | 286 | 0.0 | 1.0 | 0.00 | 0.00 | 0.00 | 84 | 1013.5 |
| 20260510070840 | 61 | 338 | 0.0 | 0.0 | 0.00 | 0.00 | 0.00 | 83 | 1013.2 |
| 20260510070340 | 61 | 339 | 1.0 | 2.0 | 0.00 | 0.00 | 0.00 | 82 | 1013.0 |
| 20260510065840 | 61 | 0 | 1.0 | 5.0 | 0.00 | 0.00 | 0.00 | 82 | 1013.0 |
| 20260510065340 | 61 | 7 | 2.0 | 5.0 | 0.00 | 0.00 | 0.00 | 83 | 1013.0 |
| 20260510064840 | 61 | 346 | 4.0 | 5.0 | 0.00 | 0.00 | 0.00 | 83 | 1013.0 |
| 20260510064340 | 61 | 334 | 5.0 | 10.0 | 0.00 | 0.00 | 0.00 | 83 | 1013.2 |
| 20260510063840 | 62 | 348 | 6.0 | 9.0 | 0.00 | 0.09 | 0.00 | 83 | 1013.2 |
| 20260510063340 | 62 | 344 | 6.0 | 10.0 | 0.00 | 0.09 | 0.00 | 83 | 1013.3 |
| 20260510062840 | 62 | 348 | 8.0 | 12.0 | 0.00 | 0.09 | 0.00 | 83 | 1013.2 |
| 20260510062340 | 62 | 358 | 7.0 | 12.0 | 0.00 | 0.09 | 0.00 | 82 | 1013.2 |
| 20260510061840 | 62 | 342 | 7.0 | 10.0 | 0.00 | 0.09 | 0.00 | 83 | 1013.3 |
| 20260510061340 | 62 | 3 | 8.0 | 12.0 | 0.00 | 0.09 | 0.00 | 82 | 1013.0 |
| 20260510060840 | 62 | 350 | 8.0 | 15.0 | 0.00 | 0.09 | 0.00 | 82 | 1013.0 |
| 20260510060340 | 62 | 355 | 6.0 | 13.0 | 0.00 | 0.09 | 0.00 | 84 | 1012.8 |
| 20260510055840 | 61 | 348 | 3.0 | 12.0 | 0.00 | 0.09 | 0.00 | 89 | 1012.6 |
| 20260510055340 | 60 | 332 | 3.0 | 7.0 | 0.00 | 0.09 | 0.00 | 93 | 1012.5 |
| 20260510054840 | 59 | 330 | 2.0 | 9.0 | 0.00 | 0.09 | 0.00 | 96 | 1012.5 |
| 20260510054340 | 58 | 347 | 0.0 | 2.0 | 0.00 | 0.09 | 0.00 | 95 | 1011.9 |
| 20260510053840 | 58 | 282 | 0.0 | 0.0 | 0.00 | 0.20 | 0.00 | 95 | 1011.5 |
| 20260510053340 | 58 | 282 | 0.0 | 0.0 | 0.00 | 0.20 | 0.00 | 95 | 1011.4 |
| 20260510052840 | 58 | 282 | 0.0 | 0.0 | 0.00 | 0.20 | 0.00 | 95 | 1011.3 |
| 20260510052341 | 58 | 282 | 0.0 | 0.0 | 0.00 | 0.20 | 0.23 | 95 | 1011.4 |
| 20260510051841 | 58 | 282 | 0.0 | 0.0 | 0.00 | 0.20 | 0.23 | 95 | 1011.4 |
| 20260510051341 | 58 | 282 | 0.0 | 0.0 | 0.00 | 0.20 | 0.23 | 95 | 1011.4 |
| 20260510050841 | 58 | 282 | 0.0 | 0.0 | 0.00 | 0.20 | 0.23 | 94 | 1011.4 |
| 20260510050341 | 58 | 282 | 0.0 | 0.0 | 0.00 | 0.20 | 0.23 | 94 | 1011.4 |
| 20260510045841 | 58 | 282 | 0.0 | 0.0 | 0.00 | 0.20 | 0.23 | 94 | 1011.4 |
| 20260510045341 | 58 | 282 | 0.0 | 0.0 | 0.00 | 0.20 | 0.23 | 94 | 1011.4 |
| 20260510044841 | 58 | 282 | 0.0 | 0.0 | 0.00 | 0.20 | 0.23 | 94 | 1011.3 |
| 20260510044341 | 58 | 282 | 0.0 | 0.0 | 0.00 | 0.20 | 0.23 | 94 | 1011.4 |
| 20260510043841 | 58 | 282 | 0.0 | 0.0 | 0.00 | 0.24 | 0.23 | 94 | 1011.5 |
| 20260510043341 | 58 | 282 | 0.0 | 0.0 | 0.00 | 0.24 | 0.23 | 94 | 1011.5 |
| 20260510042841 | 58 | 282 | 0.0 | 0.0 | 0.00 | 0.24 | 0.23 | 94 | 1011.5 |
| 20260510042341 | 58 | 282 | 0.0 | 0.0 | 0.00 | 0.24 | 0.23 | 93 | 1011.5 |
| 20260510041841 | 58 | 282 | 0.0 | 0.0 | 0.00 | 0.24 | 0.23 | 93 | 1011.5 |
| 20260510041341 | 58 | 282 | 0.0 | 0.0 | 0.00 | 0.24 | 0.23 | 93 | 1011.5 |
| 20260510040841 | 58 | 282 | 0.0 | 0.0 | 0.00 | 0.24 | 0.23 | 93 | 1011.5 |
| 20260510040341 | 59 | 282 | 0.0 | 0.0 | 0.00 | 0.24 | 0.23 | 93 | 1011.5 |
| 20260510035841 | 59 | 282 | 0.0 | 0.0 | 0.00 | 0.24 | 0.23 | 93 | 1011.6 |
| 20260510035341 | 59 | 282 | 0.0 | 0.0 | 0.00 | 0.24 | 0.23 | 93 | 1011.5 |
| 20260510034841 | 59 | 282 | 0.0 | 0.0 | 0.00 | 0.24 | 0.23 | 93 | 1011.5 |
| 20260510034341 | 59 | 282 | 0.0 | 0.0 | 0.00 | 0.24 | 0.23 | 93 | 1011.6 |
| 20260510033841 | 60 | 282 | 0.0 | 0.0 | 0.00 | 0.24 | 0.23 | 93 | 1011.5 |
| 20260510033341 | 60 | 282 | 0.0 | 0.0 | 0.00 | 0.24 | 0.23 | 93 | 1011.6 |
| 20260510032841 | 60 | 282 | 0.0 | 0.0 | 0.00 | 0.24 | 0.23 | 93 | 1011.6 |
| 20260510032341 | 60 | 282 | 0.0 | 0.0 | 0.00 | 0.24 | 0.23 | 92 | 1011.5 |
| 20260510031841 | 60 | 282 | 0.0 | 0.0 | 0.00 | 0.24 | 0.23 | 92 | 1011.5 |
| 20260510031341 | 60 | 282 | 0.0 | 0.0 | 0.00 | 0.24 | 0.23 | 92 | 1011.5 |
| 20260510030841 | 61 | 282 | 0.0 | 0.0 | 0.00 | 0.24 | 0.23 | 92 | 1011.5 |
| 20260510030341 | 61 | 282 | 0.0 | 0.0 | 0.00 | 0.24 | 0.23 | 92 | 1011.5 |
| 20260510025841 | 61 | 282 | 0.0 | 0.0 | 0.00 | 0.24 | 0.23 | 92 | 1011.5 |
| 20260510025341 | 61 | 282 | 0.0 | 0.0 | 0.00 | 0.24 | 0.23 | 91 | 1011.4 |
| 20260510024841 | 61 | 282 | 0.0 | 0.0 | 0.00 | 0.24 | 0.23 | 91 | 1011.3 |
| 20260510024341 | 62 | 282 | 0.0 | 0.0 | 0.00 | 0.24 | 0.23 | 91 | 1011.3 |
| 20260510023841 | 62 | 282 | 0.0 | 0.0 | 0.00 | 0.24 | 0.23 | 91 | 1011.3 |
| 20260510023341 | 62 | 282 | 0.0 | 0.0 | 0.00 | 0.24 | 0.23 | 91 | 1011.2 |
| 20260510022841 | 62 | 282 | 0.0 | 0.0 | 0.00 | 0.24 | 0.23 | 91 | 1011.2 |
| 20260510022341 | 62 | 282 | 0.0 | 0.0 | 0.00 | 0.24 | 0.23 | 90 | 1011.0 |
| 20260510021841 | 62 | 282 | 0.0 | 0.0 | 0.00 | 0.24 | 0.23 | 90 | 1011.0 |
| 20260510021341 | 62 | 282 | 0.0 | 0.0 | 0.00 | 0.24 | 0.23 | 89 | 1011.0 |
| 20260510020841 | 62 | 282 | 0.0 | 0.0 | 0.00 | 0.24 | 0.23 | 88 | 1010.9 |
| 20260510020341 | 62 | 282 | 0.0 | 0.0 | 0.00 | 0.24 | 0.23 | 87 | 1010.9 |
| 20260510015841 | 62 | 282 | 0.0 | 0.0 | 0.00 | 0.24 | 0.23 | 88 | 1010.8 |
| 20260510015341 | 62 | 282 | 0.0 | 0.0 | 0.00 | 0.24 | 0.23 | 87 | 1010.6 |
| 20260510014841 | 63 | 282 | 0.0 | 1.0 | 0.00 | 0.24 | 0.23 | 87 | 1010.5 |
| 20260510014342 | 63 | 282 | 0.0 | 0.0 | 0.00 | 0.24 | 0.23 | 86 | 1010.5 |
| 20260510013841 | 64 | 282 | 0.0 | 0.0 | 0.00 | 0.24 | 0.23 | 86 | 1010.5 |
| 20260510013341 | 64 | 282 | 0.0 | 1.0 | 0.00 | 0.24 | 0.23 | 85 | 1010.3 |
| 20260510012841 | 65 | 282 | 0.0 | 0.0 | 0.00 | 0.24 | 0.23 | 84 | 1010.3 |
| 20260510012341 | 65 | 282 | 0.0 | 1.0 | 0.00 | 0.24 | 0.23 | 83 | 1010.3 |
| 20260510011841 | 65 | 282 | 0.0 | 0.0 | 0.00 | 0.24 | 0.23 | 82 | 1010.1 |
| 20260510011341 | 66 | 282 | 0.0 | 0.0 | 0.00 | 0.24 | 0.23 | 80 | 1010.1 |
| 20260510010841 | 67 | 282 | 0.0 | 1.0 | 0.00 | 0.24 | 0.23 | 80 | 1010.0 |
| 20260510010341 | 67 | 281 | 0.0 | 0.0 | 0.00 | 0.24 | 0.23 | 79 | 1009.9 |
| 20260510005841 | 68 | 281 | 0.0 | 0.0 | 0.00 | 0.24 | 0.23 | 78 | 1009.8 |
| 20260510005341 | 68 | 281 | 0.0 | 0.0 | 0.00 | 0.24 | 0.23 | 76 | 1009.8 |
| 20260510004841 | 69 | 281 | 0.0 | 0.0 | 0.00 | 0.24 | 0.23 | 74 | 1009.6 |
| 20260510004341 | 70 | 281 | 0.0 | 0.0 | 0.00 | 0.24 | 0.23 | 75 | 1009.5 |
| 20260510003841 | 70 | 281 | 0.0 | 0.0 | 0.00 | 0.24 | 0.23 | 73 | 1009.5 |
| 20260510003341 | 71 | 281 | 0.0 | 0.0 | 0.00 | 0.24 | 0.23 | 73 | 1009.4 |
| 20260510002841 | 72 | 281 | 0.0 | 0.0 | 0.00 | 0.24 | 0.23 | 69 | 1009.3 |
| 20260510002341 | 72 | 281 | 0.0 | 1.0 | 0.00 | 0.24 | 0.23 | 67 | 1009.1 |
| 20260510001841 | 73 | 281 | 0.0 | 0.0 | 0.00 | 0.24 | 0.23 | 64 | 1009.1 |
| 20260510001341 | 73 | 281 | 0.0 | 0.0 | 0.00 | 0.24 | 0.23 | 64 | 1009.1 |
| 20260510000841 | 74 | 281 | 0.0 | 0.0 | 0.00 | 0.24 | 0.23 | 63 | 1009.3 |
| 20260510000342 | 74 | 281 | 0.0 | 0.0 | 0.00 | 0.24 | 0.23 | 62 | 1009.2 |
| 20260509235841 | 75 | 281 | 0.0 | 0.0 | 0.00 | 0.24 | 0.23 | 62 | 1009.1 |
| 20260509235342 | 75 | 281 | 0.0 | 1.0 | 0.00 | 0.24 | 0.23 | 60 | 1009.2 |
| 20260509234842 | 76 | 283 | 0.0 | 0.0 | 0.00 | 0.24 | 0.23 | 59 | 1009.2 |
| 20260509234342 | 76 | 236 | 0.0 | 0.0 | 0.00 | 0.24 | 0.23 | 59 | 1009.1 |
| 20260509233842 | 76 | 236 | 0.0 | 1.0 | 0.00 | 0.24 | 0.23 | 60 | 1009.1 |
| 20260509233342 | 77 | 217 | 0.0 | 1.0 | 0.00 | 0.24 | 0.23 | 60 | 1009.0 |
| 20260509232842 | 77 | 268 | 0.0 | 1.0 | 0.00 | 0.24 | 0.23 | 57 | 1008.9 |
| 20260509232342 | 77 | 312 | 0.0 | 2.0 | 0.00 | 0.24 | 0.23 | 56 | 1009.1 |
| 20260509231842 | 77 | 327 | 0.0 | 1.0 | 0.00 | 0.24 | 0.23 | 58 | 1009.2 |
| 20260509231342 | 78 | 261 | 0.0 | 2.0 | 0.00 | 0.24 | 0.23 | 57 | 1009.1 |
| 20260509230842 | 78 | 113 | 0.0 | 1.0 | 0.00 | 0.24 | 0.23 | 57 | 1009.0 |
| 20260509230342 | 78 | 313 | 0.0 | 1.0 | 0.00 | 0.24 | 0.23 | 56 | 1009.0 |
| 20260509225842 | 78 | 315 | 1.0 | 3.0 | 0.00 | 0.24 | 0.23 | 56 | 1008.8 |
| 20260509225342 | 78 | 339 | 1.0 | 3.0 | 0.00 | 0.24 | 0.23 | 56 | 1008.9 |
| 20260509224842 | 78 | 312 | 1.0 | 3.0 | 0.00 | 0.24 | 0.23 | 54 | 1008.8 |
| 20260509224342 | 78 | 317 | 1.0 | 4.0 | 0.00 | 0.24 | 0.23 | 55 | 1008.7 |
| 20260509223842 | 78 | 286 | 1.0 | 3.0 | 0.00 | 0.24 | 0.23 | 56 | 1008.8 |
| 20260509223342 | 79 | 335 | 1.0 | 4.0 | 0.00 | 0.24 | 0.23 | 52 | 1008.8 |
| 20260509222842 | 79 | 309 | 0.0 | 3.0 | 0.00 | 0.24 | 0.23 | 52 | 1008.8 |
| 20260509222342 | 79 | 276 | 0.0 | 2.0 | 0.00 | 0.24 | 0.23 | 54 | 1008.9 |
| 20260509221842 | 78 | 308 | 1.0 | 3.0 | 0.00 | 0.24 | 0.23 | 54 | 1008.9 |
| 20260509221342 | 78 | 314 | 1.0 | 5.0 | 0.00 | 0.24 | 0.23 | 55 | 1008.9 |
| 20260509220842 | 78 | 321 | 2.0 | 3.0 | 0.00 | 0.24 | 0.23 | 57 | 1008.9 |
| 20260509220342 | 78 | 315 | 2.0 | 6.0 | 0.00 | 0.24 | 0.23 | 54 | 1008.9 |
| 20260509215842 | 78 | 313 | 2.0 | 4.0 | 0.00 | 0.24 | 0.23 | 57 | 1008.9 |
| 20260509215342 | 78 | 315 | 1.0 | 6.0 | 0.00 | 0.24 | 0.23 | 53 | 1009.0 |
| 20260509214842 | 79 | 327 | 1.0 | 3.0 | 0.00 | 0.24 | 0.23 | 56 | 1009.0 |
| 20260509214342 | 79 | 325 | 1.0 | 6.0 | 0.00 | 0.24 | 0.23 | 55 | 1008.9 |
| 20260509213842 | 80 | 318 | 0.0 | 3.0 | 0.00 | 0.24 | 0.23 | 54 | 1008.9 |
| 20260509213342 | 79 | 321 | 1.0 | 2.0 | 0.00 | 0.24 | 0.23 | 55 | 1009.1 |
| 20260509212842 | 79 | 213 | 1.0 | 7.0 | 0.00 | 0.24 | 0.23 | 57 | 1009.1 |
| 20260509212342 | 79 | 200 | 0.0 | 1.0 | 0.00 | 0.24 | 0.23 | 60 | 1009.1 |
| 20260509211842 | 79 | 324 | 0.0 | 4.0 | 0.00 | 0.24 | 0.23 | 58 | 1008.9 |
| 20260509211342 | 79 | 309 | 0.0 | 1.0 | 0.00 | 0.24 | 0.23 | 55 | 1009.0 |
| 20260509210842 | 79 | 303 | 1.0 | 7.0 | 0.00 | 0.24 | 0.23 | 57 | 1009.1 |
| 20260509210342 | 78 | 305 | 1.0 | 5.0 | 0.00 | 0.24 | 0.23 | 59 | 1009.2 |
| 20260509205842 | 78 | 304 | 2.0 | 9.0 | 0.00 | 0.24 | 0.23 | 61 | 1009.2 |
| 20260509205342 | 78 | 299 | 2.0 | 10.0 | 0.00 | 0.24 | 0.23 | 62 | 1009.2 |
| 20260509204842 | 78 | 222 | 1.0 | 10.0 | 0.00 | 0.24 | 0.23 | 59 | 1009.1 |
| 20260509204342 | 78 | 306 | 1.0 | 3.0 | 0.00 | 0.24 | 0.23 | 61 | 1009.1 |
| 20260509203842 | 78 | 100 | 2.0 | 5.0 | 0.00 | 0.24 | 0.23 | 61 | 1009.2 |
| 20260509203342 | 77 | 290 | 1.0 | 11.0 | 0.00 | 0.24 | 0.23 | 57 | 1009.3 |
| 20260509202842 | 77 | 275 | 1.0 | 2.0 | 0.00 | 0.24 | 0.23 | 58 | 1009.4 |
| 20260509202342 | 77 | 306 | 1.0 | 10.0 | 0.00 | 0.24 | 0.23 | 60 | 1009.3 |
| 20260509201842 | 77 | 269 | 1.0 | 10.0 | 0.00 | 0.24 | 0.23 | 57 | 1009.3 |
| 20260509201342 | 77 | 296 | 1.0 | 7.0 | 0.00 | 0.24 | 0.23 | 61 | 1009.3 |
| 20260509200842 | 77 | 215 | 1.0 | 6.0 | 0.00 | 0.24 | 0.23 | 58 | 1009.3 |
| 20260509200342 | 77 | 321 | 2.0 | 7.0 | 0.00 | 0.24 | 0.23 | 62 | 1009.3 |
| 20260509195842 | 76 | 308 | 2.0 | 9.0 | 0.00 | 0.24 | 0.23 | 63 | 1009.3 |
| 20260509195342 | 76 | 217 | 2.0 | 7.0 | 0.00 | 0.24 | 0.23 | 61 | 1009.4 |
| 20260509194844 | 75 | 316 | 3.0 | 9.0 | 0.00 | 0.24 | 0.23 | 62 | 1009.4 |
| 20260509194342 | 75 | 249 | 4.0 | 9.0 | 0.00 | 0.24 | 0.23 | 66 | 1009.5 |
| 20260509193842 | 74 | 232 | 4.0 | 9.0 | 0.00 | 0.24 | 0.23 | 64 | 1009.5 |
| 20260509193342 | 74 | 246 | 5.0 | 10.0 | 0.00 | 0.24 | 0.23 | 66 | 1009.7 |
| 20260509192842 | 74 | 275 | 6.0 | 11.0 | 0.00 | 0.24 | 0.23 | 68 | 1009.7 |
| 20260509192342 | 74 | 242 | 5.0 | 11.0 | 0.00 | 0.24 | 0.23 | 64 | 1009.7 |
| 20260509191842 | 73 | 258 | 5.0 | 9.0 | 0.00 | 0.24 | 0.23 | 67 | 1009.7 |
| 20260509191342 | 73 | 251 | 5.0 | 9.0 | 0.00 | 0.24 | 0.23 | 65 | 1009.8 |
| 20260509190842 | 73 | 246 | 5.0 | 10.0 | 0.00 | 0.24 | 0.23 | 68 | 1009.8 |
| 20260509190342 | 73 | 240 | 5.0 | 9.0 | 0.00 | 0.24 | 0.23 | 68 | 1010.0 |
| 20260509185842 | 72 | 256 | 4.0 | 10.0 | 0.00 | 0.24 | 0.23 | 69 | 1010.0 |
| 20260509185342 | 72 | 225 | 4.0 | 10.0 | 0.00 | 0.24 | 0.23 | 68 | 1010.0 |
| 20260509184842 | 72 | 219 | 5.0 | 8.0 | 0.00 | 0.24 | 0.23 | 70 | 1010.1 |
| 20260509184343 | 72 | 320 | 5.0 | 10.0 | 0.00 | 0.24 | 0.23 | 73 | 1010.1 |
| 20260509183842 | 72 | 227 | 4.0 | 9.0 | 0.00 | 0.24 | 0.23 | 72 | 1010.1 |
| 20260509183342 | 71 | 283 | 4.0 | 8.0 | 0.00 | 0.24 | 0.23 | 75 | 1010.1 |
| 20260509182842 | 71 | 251 | 4.0 | 9.0 | 0.00 | 0.24 | 0.23 | 73 | 1010.1 |
| 20260509182343 | 71 | 238 | 4.0 | 9.0 | 0.00 | 0.24 | 0.23 | 73 | 1010.1 |
| 20260509181843 | 71 | 254 | 4.0 | 8.0 | 0.00 | 0.24 | 0.23 | 74 | 1010.2 |
| 20260509181343 | 71 | 259 | 3.0 | 8.0 | 0.00 | 0.24 | 0.23 | 76 | 1010.2 |
| 20260509180843 | 70 | 200 | 4.0 | 7.0 | 0.00 | 0.24 | 0.23 | 76 | 1010.1 |
| 20260509180343 | 70 | 229 | 5.0 | 10.0 | 0.00 | 0.24 | 0.23 | 76 | 1010.3 |
| 20260509175843 | 70 | 248 | 3.0 | 9.0 | 0.00 | 0.24 | 0.23 | 76 | 1010.3 |
| 20260509175343 | 70 | 236 | 3.0 | 6.0 | 0.00 | 0.24 | 0.23 | 74 | 1010.4 |
| 20260509174843 | 70 | 246 | 4.0 | 9.0 | 0.00 | 0.24 | 0.23 | 77 | 1010.4 |
| 20260509174343 | 69 | 275 | 3.0 | 9.0 | 0.00 | 0.24 | 0.23 | 75 | 1010.4 |
| 20260509173843 | 70 | 271 | 3.0 | 8.0 | 0.00 | 0.24 | 0.23 | 74 | 1010.5 |
| 20260509173343 | 69 | 265 | 2.0 | 7.0 | 0.00 | 0.24 | 0.23 | 76 | 1010.6 |
| 20260509172843 | 69 | 238 | 2.0 | 7.0 | 0.00 | 0.24 | 0.23 | 74 | 1010.7 |
| 20260509172343 | 68 | 328 | 3.0 | 6.0 | 0.00 | 0.24 | 0.23 | 75 | 1010.8 |
| 20260509171843 | 68 | 249 | 4.0 | 7.0 | 0.00 | 0.24 | 0.23 | 74 | 1010.8 |
| 20260509171343 | 68 | 225 | 4.0 | 10.0 | 0.00 | 0.24 | 0.23 | 75 | 1010.9 |
| 20260509170843 | 68 | 228 | 3.0 | 8.0 | 0.00 | 0.24 | 0.23 | 76 | 1010.9 |
| 20260509170343 | 68 | 195 | 3.0 | 10.0 | 0.00 | 0.24 | 0.23 | 75 | 1010.9 |
| 20260509165843 | 68 | 229 | 3.0 | 10.0 | 0.00 | 0.24 | 0.23 | 77 | 1010.9 |
| 20260509165343 | 67 | 302 | 4.0 | 12.0 | 0.00 | 0.24 | 0.23 | 76 | 1011.0 |
| 20260509164843 | 68 | 249 | 2.0 | 11.0 | 0.00 | 0.24 | 0.23 | 78 | 1011.0 |
| 20260509164343 | 67 | 235 | 2.0 | 7.0 | 0.00 | 0.24 | 0.23 | 80 | 1011.1 |
| 20260509163843 | 67 | 184 | 3.0 | 5.0 | 0.00 | 0.24 | 0.23 | 77 | 1011.0 |
| 20260509163343 | 66 | 238 | 4.0 | 7.0 | 0.00 | 0.24 | 0.23 | 78 | 1011.1 |
| 20260509162843 | 66 | 226 | 4.0 | 9.0 | 0.00 | 0.24 | 0.23 | 78 | 1011.1 |
| 20260509162343 | 66 | 217 | 2.0 | 8.0 | 0.00 | 0.24 | 0.23 | 78 | 1011.1 |
| 20260509161843 | 67 | 242 | 1.0 | 7.0 | 0.00 | 0.24 | 0.23 | 78 | 1011.0 |
| 20260509161343 | 66 | 319 | 3.0 | 7.0 | 0.00 | 0.24 | 0.23 | 82 | 1011.0 |
| 20260509160843 | 65 | 283 | 2.0 | 9.0 | 0.00 | 0.24 | 0.23 | 78 | 1011.0 |
| 20260509160343 | 65 | 280 | 1.0 | 3.0 | 0.00 | 0.24 | 0.23 | 80 | 1011.0 |
| 20260509155843 | 65 | 231 | 2.0 | 8.0 | 0.00 | 0.24 | 0.23 | 81 | 1010.9 |
| 20260509155343 | 65 | 327 | 2.0 | 7.0 | 0.00 | 0.24 | 0.23 | 84 | 1011.0 |
| 20260509154843 | 64 | 318 | 3.0 | 6.0 | 0.00 | 0.24 | 0.23 | 84 | 1010.9 |
| 20260509154343 | 63 | 255 | 2.0 | 7.0 | 0.00 | 0.24 | 0.23 | 83 | 1010.9 |
| 20260509153843 | 62 | 236 | 1.0 | 5.0 | 0.00 | 0.24 | 0.23 | 83 | 1010.9 |
| 20260509153343 | 62 | 150 | 3.0 | 5.0 | 0.00 | 0.24 | 0.23 | 84 | 1010.8 |
| 20260509152843 | 62 | 347 | 4.0 | 7.0 | 0.00 | 0.24 | 0.23 | 84 | 1010.6 |
| 20260509152343 | 62 | 290 | 3.0 | 7.0 | 0.00 | 0.24 | 0.23 | 86 | 1010.5 |
| 20260509151843 | 61 | 237 | 3.0 | 6.0 | 0.00 | 0.24 | 0.23 | 86 | 1010.5 |
| 20260509151343 | 61 | 252 | 2.0 | 6.0 | 0.00 | 0.24 | 0.23 | 87 | 1010.5 |
| 20260509150843 | 61 | 260 | 1.0 | 5.0 | 0.00 | 0.24 | 0.23 | 88 | 1010.5 |
| 20260509150343 | 61 | 244 | 2.0 | 5.0 | 0.00 | 0.24 | 0.23 | 90 | 1010.4 |
| 20260509145843 | 60 | 238 | 3.0 | 6.0 | 0.00 | 0.24 | 0.23 | 88 | 1010.3 |
| 20260509145343 | 60 | 234 | 2.0 | 5.0 | 0.00 | 0.24 | 0.23 | 89 | 1010.2 |
| 20260509144843 | 60 | 269 | 2.0 | 5.0 | 0.00 | 0.24 | 0.23 | 89 | 1010.2 |
| 20260509144343 | 60 | 270 | 1.0 | 4.0 | 0.00 | 0.24 | 0.23 | 89 | 1010.3 |
| 20260509143843 | 60 | 279 | 0.0 | 1.0 | 0.00 | 0.24 | 0.23 | 92 | 1010.3 |
| 20260509143346 | 59 | 263 | 0.0 | 2.0 | 0.00 | 0.24 | 0.23 | 92 | 1010.3 |
| 20260509142843 | 59 | 167 | 1.0 | 2.0 | 0.00 | 0.24 | 0.23 | 92 | 1010.3 |
| 20260509142343 | 59 | 259 | 1.0 | 7.0 | 0.00 | 0.24 | 0.23 | 91 | 1010.3 |
| 20260509141843 | 58 | 257 | 1.0 | 2.0 | 0.00 | 0.24 | 0.23 | 93 | 1010.2 |
| 20260509141343 | 58 | 249 | 1.0 | 5.0 | 0.00 | 0.24 | 0.23 | 93 | 1010.4 |
| 20260509140843 | 58 | 252 | 1.0 | 4.0 | 0.00 | 0.24 | 0.23 | 93 | 1010.4 |
| 20260509140343 | 58 | 240 | 1.0 | 2.0 | 0.00 | 0.24 | 0.23 | 94 | 1010.6 |
| 20260509135843 | 58 | 215 | 2.0 | 5.0 | 0.00 | 0.24 | 0.23 | 94 | 1010.5 |
| 20260509135343 | 58 | 237 | 1.0 | 4.0 | 0.00 | 0.24 | 0.23 | 94 | 1010.4 |
| 20260509134843 | 58 | 266 | 0.0 | 4.0 | 0.00 | 0.24 | 0.23 | 95 | 1010.4 |
| 20260509134343 | 58 | 268 | 0.0 | 5.0 | 0.00 | 0.24 | 0.23 | 95 | 1010.4 |
| 20260509133843 | 57 | 198 | 0.0 | 2.0 | 0.00 | 0.24 | 0.23 | 95 | 1010.4 |
| 20260509133343 | 57 | 251 | 1.0 | 2.0 | 0.00 | 0.24 | 0.23 | 95 | 1010.3 |
| 20260509132843 | 57 | 242 | 1.0 | 4.0 | 0.00 | 0.24 | 0.23 | 95 | 1010.4 |
| 20260509132343 | 57 | 229 | 1.0 | 3.0 | 0.00 | 0.24 | 0.23 | 95 | 1010.2 |
| 20260509131843 | 57 | 236 | 0.0 | 3.0 | 0.00 | 0.24 | 0.23 | 95 | 1010.2 |
| 20260509131343 | 57 | 225 | 0.0 | 0.0 | 0.00 | 0.24 | 0.23 | 96 | 1010.2 |
| 20260509131041 | 57 | 225 | 0.0 | 0.0 | 0.00 | 0.24 | 0.23 | 96 | 1010.2 |
| 20260509130843 | 57 | 225 | 0.0 | 0.0 | 0.00 | 0.24 | 0.23 | 96 | 1010.2 |
| 20260509130343 | 56 | 250 | 0.0 | 0.0 | 0.00 | 0.24 | 0.23 | 96 | 1010.2 |
| 20260509125843 | 56 | 321 | 0.0 | 0.0 | 0.00 | 0.24 | 0.23 | 96 | 1010.3 |
| 20260509125344 | 56 | 321 | 0.0 | 0.0 | 0.00 | 0.24 | 0.23 | 96 | 1010.2 |
| 20260509124844 | 55 | 318 | 1.0 | 3.0 | 0.00 | 0.24 | 0.23 | 95 | 1010.1 |
| 20260509124344 | 55 | 247 | 0.0 | 2.0 | 0.00 | 0.24 | 0.23 | 95 | 1010.0 |
| 20260509123844 | 55 | 279 | 0.0 | 1.0 | 0.00 | 0.24 | 0.23 | 95 | 1010.0 |
| 20260509123344 | 55 | 298 | 0.0 | 1.0 | 0.00 | 0.24 | 0.23 | 96 | 1010.0 |
| 20260509122844 | 55 | 277 | 0.0 | 1.0 | 0.00 | 0.24 | 0.23 | 96 | 1010.1 |
| 20260509122344 | 55 | 276 | 1.0 | 1.0 | 0.00 | 0.24 | 0.23 | 96 | 1010.0 |
| 20260509121844 | 54 | 261 | 1.0 | 3.0 | 0.00 | 0.24 | 0.23 | 95 | 1010.0 |
| 20260509121344 | 54 | 275 | 1.0 | 3.0 | 0.00 | 0.24 | 0.23 | 95 | 1010.0 |
| 20260509120844 | 54 | 234 | 1.0 | 3.0 | 0.00 | 0.24 | 0.23 | 95 | 1010.0 |
| 20260509120344 | 54 | 207 | 1.0 | 3.0 | 0.00 | 0.24 | 0.23 | 95 | 1009.9 |
| 20260509115844 | 54 | 207 | 0.0 | 2.0 | 0.00 | 0.24 | 0.23 | 95 | 1009.8 |
| 20260509115344 | 54 | 258 | 0.0 | 1.0 | 0.00 | 0.24 | 0.23 | 96 | 1009.9 |
| 20260509114844 | 54 | 269 | 0.0 | 0.0 | 0.00 | 0.24 | 0.23 | 96 | 1009.7 |
| 20260509114344 | 53 | 269 | 0.0 | 0.0 | 0.00 | 0.24 | 0.23 | 96 | 1009.7 |
| 20260509113844 | 52 | 269 | 0.0 | 0.0 | 0.00 | 0.24 | 0.23 | 96 | 1009.7 |
| 20260509113344 | 52 | 260 | 0.0 | 0.0 | 0.00 | 0.24 | 0.23 | 96 | 1009.7 |
| 20260509112844 | 52 | 260 | 0.0 | 1.0 | 0.00 | 0.24 | 0.23 | 96 | 1009.7 |
| 20260509112344 | 52 | 215 | 0.0 | 1.0 | 0.00 | 0.24 | 0.23 | 96 | 1009.7 |
| 20260509111844 | 51 | 223 | 0.0 | 0.0 | 0.00 | 0.24 | 0.23 | 96 | 1009.5 |
| 20260509111344 | 51 | 223 | 0.0 | 0.0 | 0.00 | 0.24 | 0.23 | 96 | 1009.5 |
| 20260509110844 | 51 | 223 | 0.0 | 0.0 | 0.00 | 0.24 | 0.23 | 96 | 1009.4 |
| 20260509110344 | 51 | 223 | 0.0 | 0.0 | 0.00 | 0.24 | 0.23 | 96 | 1009.4 |
| 20260509105844 | 51 | 223 | 0.0 | 0.0 | 0.00 | 0.24 | 0.23 | 96 | 1009.5 |
| 20260509105344 | 51 | 223 | 0.0 | 1.0 | 0.00 | 0.24 | 0.23 | 96 | 1009.5 |
| 20260509104844 | 50 | 238 | 0.0 | 0.0 | 0.00 | 0.24 | 0.23 | 96 | 1009.6 |
| 20260509104344 | 50 | 264 | 0.0 | 0.0 | 0.00 | 0.24 | 0.23 | 96 | 1009.5 |
| 20260509103844 | 50 | 273 | 0.0 | 0.0 | 0.00 | 0.24 | 0.23 | 96 | 1009.3 |
| 20260509103344 | 50 | 273 | 0.0 | 0.0 | 0.00 | 0.24 | 0.23 | 96 | 1009.2 |
| 20260509102844 | 50 | 273 | 0.0 | 0.0 | 0.00 | 0.24 | 0.23 | 95 | 1009.1 |
| 20260509102344 | 50 | 273 | 0.0 | 0.0 | 0.00 | 0.24 | 0.23 | 95 | 1009.1 |
| 20260509101844 | 51 | 273 | 0.0 | 0.0 | 0.00 | 0.24 | 0.23 | 96 | 1009.2 |
| 20260509101344 | 51 | 273 | 0.0 | 0.0 | 0.00 | 0.24 | 0.23 | 96 | 1009.2 |
| 20260509100844 | 50 | 273 | 0.0 | 0.0 | 0.00 | 0.24 | 0.23 | 96 | 1009.1 |
| 20260509100344 | 50 | 273 | 0.0 | 0.0 | 0.00 | 0.24 | 0.23 | 96 | 1009.1 |
| 20260509095844 | 51 | 273 | 0.0 | 0.0 | 0.00 | 0.24 | 0.23 | 95 | 1009.1 |
| 20260509095344 | 51 | 273 | 0.0 | 0.0 | 0.00 | 0.24 | 0.23 | 95 | 1009.2 |
| 20260509094844 | 51 | 273 | 0.0 | 0.0 | 0.00 | 0.24 | 0.23 | 95 | 1009.1 |
| 20260509094344 | 51 | 273 | 0.0 | 0.0 | 0.00 | 0.24 | 0.23 | 95 | 1009.1 |
| 20260509093844 | 51 | 273 | 0.0 | 0.0 | 0.00 | 0.24 | 0.23 | 95 | 1009.2 |
| 20260509093344 | 51 | 273 | 0.0 | 0.0 | 0.00 | 0.24 | 0.23 | 95 | 1009.2 |
| 20260509092844 | 52 | 273 | 0.0 | 0.0 | 0.00 | 0.24 | 0.23 | 95 | 1009.2 |
| 20260509092344 | 52 | 273 | 0.0 | 0.0 | 0.00 | 0.24 | 0.23 | 95 | 1009.1 |
| 20260509091844 | 52 | 273 | 0.0 | 0.0 | 0.00 | 0.24 | 0.23 | 95 | 1009.0 |
| 20260509091344 | 52 | 273 | 0.0 | 0.0 | 0.00 | 0.24 | 0.23 | 95 | 1008.9 |
| 20260509090844 | 52 | 273 | 0.0 | 0.0 | 0.00 | 0.24 | 0.23 | 95 | 1008.9 |
| 20260509090344 | 53 | 273 | 0.0 | 0.0 | 0.00 | 0.24 | 0.23 | 95 | 1008.8 |
| 20260509085844 | 53 | 273 | 0.0 | 0.0 | 0.00 | 0.24 | 0.23 | 94 | 1008.8 |
| 20260509085344 | 53 | 273 | 0.0 | 0.0 | 0.00 | 0.24 | 0.23 | 95 | 1008.8 |
| 20260509084844 | 53 | 248 | 0.0 | 2.0 | 0.00 | 0.24 | 0.23 | 95 | 1008.7 |
| 20260509084344 | 54 | 220 | 0.0 | 2.0 | 0.00 | 0.24 | 0.23 | 95 | 1008.7 |
| 20260509083844 | 54 | 211 | 0.0 | 1.0 | 0.00 | 0.24 | 0.23 | 95 | 1008.5 |
| 20260509083344 | 54 | 250 | 0.0 | 0.0 | 0.00 | 0.24 | 0.23 | 95 | 1008.4 |
| 20260509082844 | 54 | 248 | 0.0 | 0.0 | 0.00 | 0.24 | 0.23 | 94 | 1008.5 |
| 20260509082344 | 54 | 263 | 0.0 | 0.0 | 0.00 | 0.24 | 0.23 | 94 | 1008.5 |
| 20260509081844 | 54 | 263 | 0.0 | 0.0 | 0.00 | 0.24 | 0.23 | 94 | 1008.5 |
| 20260509081344 | 54 | 263 | 0.0 | 0.0 | 0.00 | 0.24 | 0.23 | 95 | 1008.4 |
| 20260509080844 | 54 | 254 | 0.0 | 0.0 | 0.01 | 0.24 | 0.23 | 95 | 1008.3 |
| 20260509080344 | 54 | 272 | 0.0 | 0.0 | 0.02 | 0.24 | 0.23 | 95 | 1008.3 |
| 20260509075844 | 54 | 269 | 0.0 | 0.0 | 0.03 | 0.24 | 0.23 | 94 | 1008.3 |
| 20260509075344 | 54 | 3 | 0.0 | 0.0 | 0.04 | 0.24 | 0.23 | 94 | 1008.3 |
| 20260509074844 | 55 | 3 | 0.0 | 0.0 | 0.06 | 0.24 | 0.23 | 94 | 1008.3 |
| 20260509074344 | 55 | 3 | 0.0 | 0.0 | 0.08 | 0.24 | 0.23 | 94 | 1008.4 |
| 20260509073844 | 55 | 138 | 0.0 | 0.0 | 0.09 | 0.24 | 0.23 | 94 | 1008.5 |
| 20260509073345 | 55 | 138 | 0.0 | 1.0 | 0.10 | 0.24 | 0.23 | 94 | 1008.6 |
| 20260509072844 | 55 | 138 | 0.0 | 3.0 | 0.11 | 0.24 | 0.23 | 94 | 1008.6 |
| 20260509072344 | 55 | 132 | 0.0 | 2.0 | 0.12 | 0.24 | 0.23 | 94 | 1008.7 |
| 20260509071845 | 55 | 101 | 1.0 | 2.0 | 0.12 | 0.24 | 0.23 | 94 | 1008.9 |